Voltar ao catálogo

STARLINK-2731

AtivoComunicaçõesVLEO
NORAD 48651·PAYLOAD·🇺🇸 United States

Lançado May 26, 2021 de Cape Canaveral Space Force Station

Loading…

Próximas Passagens (próximas 24 horas)

TLE

AtualizadoSource: CelesTrak SupGP

Época: Sep 14, 2026, 20:57 UTC

1 48651C 21044P   26257.87340278 -.00021203  00000+0 -68182-3 0  2570
2 48651  53.1588 313.5253 0001080  89.2802 144.6511 15.31712517    12

Acompanhe STARLINK-2731 em tempo real com AllMySat

Download on the App Store